Location: Squirrel Cove
(50.1074°N, 124.9139°W)
Time: 00:08:52
(UTC-08:00)

BlueWalker 3 - Pass Details

Date: 08 December 2022
Orbit: 499 x 517 km, 53.2° (Epoch: 29 January)

Event Time Altitude Azimuth Distance (km) Brightness Sun altitude
Rises 17:14:09 0° 289° (WNW) 2,636 6.3 -8.6°
Reaches altitude 10° 17:16:22 10° 292° (WNW) 1,744 5.3 -9.0°
Maximum altitude 17:20:18 74° 17° (NNE) 537 1.9 -9.5°
Drops below altitude 10° 17:24:13 10° 103° (ESE) 1,725 4.2 -10.1°
Enters shadow 17:24:30 - 104° (ESE) 1,838 4.3 -10.1°
